Weather History for Plant City, FL

Change the Weather History Date:

Tuesday, November 6, 2012

  Actual Average Record
Temperature  
Mean Temperature 67 °F -  
Max Temperature 77 °F 80 °F 90 °F (1959)
Min Temperature 57 °F 56 °F 36 °F (1950)
Cooling Degree Days 2    
Growing Degree Days 17 (Base 50)    
Moisture  
Dew Point 60 °F    
Average Humidity 70    
Maximum Humidity 94    
Minimum Humidity 53    
Precipitation  
Precipitation 0.04 in - - ()
Sea Level Pressure  
Sea Level Pressure 29.91 in    
Wind  
Wind Speed 2 mph (West)    
Max Wind Speed 13 mph    
Max Gust Speed 17 mph    
Visibility 9 miles    
Events Rain    
Averages and records for this station are not official NWS values.
T = Trace of Precipitation, MM = Missing Value Source: NWS Daily Summary

Daily Weather History Graph

Daily Weather History Graph

Search for Another Location

Airport:

Trip Planner

Search our weather history database for the weather conditions in past years. The results will help you decide how hot, cold, wet, or windy it might be!

Date:

Astronomy

Nov. 06, 2012 Rise Set
Actual Time 6:43 AM EST 5:40 PM EST
Civil Twilight 6:19 AM EST 6:04 PM EST
Nautical Twilight 5:51 AM EST 6:32 PM EST
Astronomical Twilight 5:23 AM EST 7:00 PM EST
Moon No Moon Rise 12:39 PM EST (11/6)
Length of Visible Light 11h 45m
Length of Day
10h 56m
Waning Gibbous, 53% of the Moon is Illuminated
Nov 6
Waning Gibbous
Nov 6
Last Quarter
Nov 13
New
Nov 20
First Quarter
Nov 28
Full

Hourly Weather History & Observations

Time (EST) Temp. Dew Point Humidity Pressure Visibility Wind Dir Wind Speed Gust Speed Precip Events Conditions
12:15 AM 60.8 °F - N/A% 29.96 in 10.0 mi Calm Calm - N/A   Clear
12:35 AM 60.8 °F - N/A% 29.96 in 10.0 mi Calm Calm - N/A   Clear
12:55 AM 60.8 °F - N/A% 29.96 in 10.0 mi Calm Calm - N/A   Clear
1:15 AM 60.8 °F - N/A% 29.96 in 10.0 mi Calm Calm - N/A   Clear
1:35 AM 59.0 °F - N/A% 29.96 in 10.0 mi West 3.5 mph - N/A   Clear
1:55 AM 59.0 °F - N/A% 29.94 in 10.0 mi Calm Calm - N/A   Clear
2:15 AM 59.0 °F - N/A% 29.94 in 10.0 mi Calm Calm - N/A   Clear
2:35 AM 59.0 °F - N/A% 29.92 in 7.0 mi Calm Calm - N/A   Clear
2:55 AM 57.2 °F - N/A% 29.92 in 7.0 mi Calm Calm - N/A   Clear
3:15 AM 57.2 °F - N/A% 29.92 in 10.0 mi Calm Calm - N/A   Scattered Clouds
3:35 AM 57.2 °F - N/A% 29.92 in 7.0 mi Calm Calm - N/A   Scattered Clouds
3:55 AM 59.0 °F - N/A% 29.94 in 10.0 mi Calm Calm - N/A   Scattered Clouds
4:15 AM 59.0 °F - N/A% 29.94 in 10.0 mi Calm Calm - N/A   Scattered Clouds
4:35 AM 60.8 °F - N/A% 29.94 in 10.0 mi Calm Calm - N/A   Scattered Clouds
4:55 AM 60.8 °F - N/A% 29.94 in 10.0 mi Calm Calm - N/A   Scattered Clouds
5:15 AM 59.0 °F - N/A% 29.93 in 10.0 mi Calm Calm - N/A   Scattered Clouds
5:35 AM 59.0 °F - N/A% 29.93 in 7.0 mi South 3.5 mph - N/A   Scattered Clouds
5:55 AM 60.8 °F - N/A% 29.92 in 10.0 mi Calm Calm - N/A   Scattered Clouds
6:15 AM 60.8 °F - N/A% 29.93 in 7.0 mi Calm Calm - N/A   Scattered Clouds
6:35 AM 60.8 °F - N/A% 29.94 in 10.0 mi Calm Calm - N/A   Mostly Cloudy
6:55 AM 60.8 °F - N/A% 29.94 in 7.0 mi Calm Calm - N/A   Overcast
7:15 AM 60.8 °F - N/A% 29.94 in 7.0 mi Calm Calm - N/A   Overcast
7:35 AM 60.8 °F - N/A% 29.94 in 5.0 mi Calm Calm - N/A   Haze
7:55 AM 62.6 °F - N/A% 29.96 in 7.0 mi North 4.6 mph - N/A Rain Light Rain
8:15 AM 62.6 °F - N/A% 29.97 in 5.0 mi Calm Calm - N/A Rain Rain
8:35 AM 64.4 °F - N/A% 29.96 in 5.0 mi Calm Calm - 0.02 in Rain Light Rain
8:55 AM 64.4 °F - N/A% 29.96 in 5.0 mi Calm Calm - 0.02 in   Light Drizzle
9:15 AM 64.4 °F - N/A% 29.97 in 5.0 mi Calm Calm - 0.01 in Rain Light Rain
9:35 AM 66.2 °F - N/A% 29.97 in 5.0 mi Calm Calm - 0.02 in Rain Light Rain
9:55 AM 66.2 °F - N/A% 29.97 in 7.0 mi Calm Calm - 0.02 in   Overcast
10:15 AM 68.0 °F - N/A% 29.96 in 7.0 mi ENE 4.6 mph - N/A   Mostly Cloudy
10:35 AM 68.0 °F - N/A% 29.96 in 10.0 mi Calm Calm - N/A   Scattered Clouds
10:55 AM 69.8 °F 68.0 °F 94% 29.95 in 10.0 mi ESE 3.5 mph - N/A   Clear
11:15 AM 71.6 °F 64.4 °F 78% 29.94 in 10.0 mi Calm Calm - N/A   Clear
11:35 AM 73.4 °F 64.4 °F 73% 29.93 in 10.0 mi South 5.8 mph - N/A   Scattered Clouds
11:55 AM 75.2 °F 62.6 °F 65% 29.92 in 10.0 mi SSW 5.8 mph - N/A   Scattered Clouds
12:15 PM 75.2 °F 62.6 °F 65% 29.91 in 10.0 mi North - - N/A   Scattered Clouds
12:35 PM 75.2 °F 62.6 °F 65% 29.89 in 10.0 mi SW 5.8 mph - N/A   Mostly Cloudy
12:55 PM 75.2 °F 62.6 °F 65% 29.88 in 10.0 mi WSW 4.6 mph - N/A   Overcast
1:15 PM 77.0 °F 62.6 °F 61% 29.87 in 10.0 mi SW 6.9 mph - N/A   Mostly Cloudy
1:35 PM 77.0 °F 62.6 °F 61% 29.86 in 10.0 mi SW 5.8 mph - N/A   Scattered Clouds
1:55 PM 77.0 °F 62.6 °F 61% 29.86 in 10.0 mi WSW 9.2 mph 17.3 mph N/A   Mostly Cloudy
2:15 PM 77.0 °F 62.6 °F 61% 29.86 in 10.0 mi West 12.7 mph - N/A   Overcast
2:35 PM 77.0 °F 62.6 °F 61% 29.85 in 10.0 mi WSW 8.1 mph - N/A   Mostly Cloudy
2:55 PM 75.2 °F 62.6 °F 65% 29.85 in 10.0 mi WSW 8.1 mph - N/A   Overcast
3:15 PM 75.2 °F 62.6 °F 65% 29.85 in 10.0 mi SW 8.1 mph - N/A   Mostly Cloudy
3:35 PM 75.2 °F 62.6 °F 65% 29.85 in 10.0 mi WSW 8.1 mph - N/A   Mostly Cloudy
3:55 PM 77.0 °F 64.4 °F 65% 29.85 in 10.0 mi WSW 6.9 mph 11.5 mph N/A   Scattered Clouds
4:15 PM 75.2 °F 64.4 °F 69% 29.85 in 10.0 mi WSW 6.9 mph - N/A   Mostly Cloudy
4:35 PM 75.2 °F 57.2 °F 53% 29.85 in 10.0 mi WNW 8.1 mph - N/A   Mostly Cloudy
4:55 PM 75.2 °F 57.2 °F 53% 29.85 in 10.0 mi WNW 9.2 mph - N/A   Clear
5:15 PM 73.4 °F 57.2 °F 57% 29.86 in 10.0 mi WNW 8.1 mph - N/A   Clear
5:35 PM 73.4 °F 57.2 °F 57% 29.86 in 10.0 mi NW 4.6 mph - N/A   Scattered Clouds
5:55 PM 71.6 °F 57.2 °F 60% 29.86 in 10.0 mi NW 4.6 mph - N/A   Scattered Clouds
6:15 PM 69.8 °F 59.0 °F 68% 29.87 in 10.0 mi WNW 4.6 mph - N/A   Clear
6:35 PM 69.8 °F 59.0 °F 68% 29.87 in 10.0 mi WNW 3.5 mph - N/A   Clear
6:55 PM 68.0 °F 59.0 °F 73% 29.88 in 10.0 mi WNW 4.6 mph - N/A   Clear
7:15 PM 68.0 °F 59.0 °F 73% 29.88 in 10.0 mi WNW 3.5 mph - N/A   Clear
7:35 PM 66.2 °F 59.0 °F 78% 29.89 in 10.0 mi WNW 3.5 mph - N/A   Scattered Clouds
7:55 PM 66.2 °F 59.0 °F 78% 29.91 in 10.0 mi WNW 3.5 mph - N/A   Scattered Clouds
8:15 PM 66.2 °F 59.0 °F 78% 29.92 in 10.0 mi WNW 5.8 mph - N/A   Scattered Clouds
8:35 PM 66.2 °F 57.2 °F 73% 29.92 in 10.0 mi WNW 5.8 mph - N/A   Clear
8:55 PM 64.4 °F 57.2 °F 77% 29.92 in 10.0 mi WNW 4.6 mph - N/A   Clear
9:15 PM 64.4 °F 57.2 °F 77% 29.93 in 10.0 mi WNW 4.6 mph - N/A   Clear
9:35 PM 64.4 °F 55.4 °F 73% 29.93 in 10.0 mi WNW 4.6 mph - N/A   Clear
9:55 PM 62.6 °F 55.4 °F 77% 29.93 in 10.0 mi West 4.6 mph - N/A   Clear
10:15 PM 62.6 °F 55.4 °F 77% 29.92 in 10.0 mi WNW 4.6 mph - N/A   Clear
10:35 PM 62.6 °F 55.4 °F 77% 29.92 in 10.0 mi WNW 4.6 mph - N/A   Clear
10:55 PM 60.8 °F 55.4 °F 82% 29.92 in 10.0 mi WNW 3.5 mph - N/A   Clear
11:15 PM 60.8 °F 55.4 °F 82% 29.92 in 10.0 mi West 4.6 mph - N/A   Clear
11:35 PM 59.0 °F 55.4 °F 88% 29.91 in 10.0 mi WNW 3.5 mph - N/A   Clear
11:55 PM 60.8 °F 55.4 °F 82% 29.91 in 10.0 mi WNW 4.6 mph - N/A   Clear